TimeCDT,TemperatureF,Dew PointF,Humidity,Sea Level PressureIn,VisibilityMPH,Wind Direction,Wind SpeedMPH,Gust SpeedMPH,PrecipitationIn,Events,Conditions,WindDirDegrees,DateUTC
12:53 AM,48.9,42.1,77,29.96,10.0,WNW,9.2,-,N/A,,Clear,290,2013-05-06 05:53:00
1:53 AM,48.0,42.1,80,29.95,10.0,WNW,8.1,-,N/A,,Clear,290,2013-05-06 06:53:00
2:53 AM,46.9,43.0,86,29.95,10.0,West,4.6,-,N/A,,Clear,260,2013-05-06 07:53:00
3:53 AM,46.0,43.0,89,29.96,10.0,WSW,5.8,-,N/A,,Clear,250,2013-05-06 08:53:00
4:53 AM,45.0,43.0,93,29.97,10.0,SW,5.8,-,N/A,,Clear,230,2013-05-06 09:53:00
5:53 AM,44.1,42.1,93,29.99,10.0,SW,4.6,-,N/A,,Clear,230,2013-05-06 10:53:00
6:53 AM,46.0,44.1,93,30.00,10.0,SSW,5.8,-,N/A,,Clear,210,2013-05-06 11:53:00
7:53 AM,52.0,45.0,77,30.01,10.0,West,9.2,16.1,N/A,,Clear,280,2013-05-06 12:53:00
8:53 AM,55.9,45.0,67,30.01,10.0,WSW,6.9,-,N/A,,Clear,240,2013-05-06 13:53:00
9:53 AM,60.1,45.0,57,30.01,10.0,WSW,11.5,-,N/A,,Clear,250,2013-05-06 14:53:00
10:53 AM,62.1,44.1,52,30.02,10.0,West,12.7,-,N/A,,Overcast,260,2013-05-06 15:53:00
11:53 AM,63.0,45.0,52,30.01,10.0,West,9.2,-,N/A,,Overcast,260,2013-05-06 16:53:00
12:53 PM,64.9,45.0,48,29.99,10.0,WSW,10.4,21.9,N/A,,Overcast,250,2013-05-06 17:53:00
1:53 PM,68.0,46.0,45,29.97,10.0,West,13.8,19.6,N/A,,Overcast,270,2013-05-06 18:53:00
2:53 PM,64.9,46.0,50,29.96,10.0,WSW,10.4,19.6,N/A,,Overcast,250,2013-05-06 19:53:00
3:53 PM,64.9,46.9,52,29.94,10.0,WSW,11.5,17.3,N/A,,Overcast,240,2013-05-06 20:53:00
4:53 PM,64.9,46.0,50,29.94,10.0,West,9.2,-,N/A,,Overcast,260,2013-05-06 21:53:00
5:53 PM,63.0,46.9,56,29.94,10.0,WSW,15.0,19.6,0.00,,Overcast,240,2013-05-06 22:53:00
6:53 PM,60.1,48.9,67,29.96,10.0,West,12.7,-,0.00,Rain,Light Rain,280,2013-05-06 23:53:00
7:53 PM,57.9,51.1,78,29.96,10.0,WSW,3.5,-,0.00,,Overcast,250,2013-05-07 00:53:00
8:53 PM,57.0,52.0,83,29.98,10.0,SW,4.6,-,0.00,,Overcast,220,2013-05-07 01:53:00
9:53 PM,57.0,53.1,87,29.99,10.0,Calm,Calm,-,0.00,,Overcast,0,2013-05-07 02:53:00
10:00 PM,55.4,53.6,94,29.99,10.0,SSW,3.5,-,N/A,,Overcast,210,2013-05-07 03:00:00
10:53 PM,55.9,53.1,90,29.98,10.0,SW,3.5,-,N/A,,Overcast,220,2013-05-07 03:53:00
11:53 PM,55.0,52.0,89,29.97,10.0,SW,4.6,-,N/A,,Clear,220,2013-05-07 04:53:00